| time (UTC) | temp F | wind direction | speed MPH | gust MPH | rain 1hr in | rain 24hr in | rain mn in | humidity % | barometer mb |
| 20260509074517 | 53 | 316 | 1.0 | 3.0 | 0.00 | 0.00 | 0.00 | 50 | 1013.6 |
| 20260509073015 | 53 | 316 | 2.0 | 4.0 | 0.00 | 0.00 | 0.00 | 50 | 1013.6 |
| 20260509071513 | 53 | 296 | 2.0 | 4.0 | 0.00 | 0.00 | 0.00 | 50 | 1013.5 |
| 20260509070009 | 55 | 295 | 2.0 | 4.0 | 0.00 | 0.00 | 0.00 | 47 | 1013.4 |
| 20260509064507 | 55 | 336 | 4.0 | 8.0 | 0.00 | 0.00 | 0.00 | 47 | 1013.2 |
| 20260509063005 | 55 | 346 | 4.0 | 6.0 | 0.00 | 0.00 | 0.00 | 46 | 1013.1 |
| 20260509061619 | 56 | 341 | 3.0 | 5.0 | 0.00 | 0.00 | 0.00 | 44 | 1013.0 |
| 20260509060101 | 57 | 344 | 3.0 | 5.0 | 0.00 | 0.00 | 0.00 | 42 | 1012.8 |
| 20260509054614 | 58 | 9 | 4.0 | 9.0 | 0.00 | 0.00 | 0.00 | 41 | 1012.8 |
| 20260509053143 | 59 | 22 | 5.0 | 12.0 | 0.00 | 0.00 | 0.00 | 40 | 1012.6 |
| 20260509051556 | 58 | 360 | 5.0 | 12.0 | 0.00 | 0.00 | 0.00 | 36 | 1012.5 |
| 20260509050055 | 60 | 10 | 5.0 | 10.0 | 0.00 | 0.00 | 0.00 | 33 | 1012.4 |
| 20260509044554 | 62 | 360 | 6.0 | 11.0 | 0.00 | 0.00 | 0.00 | 31 | 1012.2 |
| 20260509043056 | 61 | 304 | 4.0 | 10.0 | 0.00 | 0.00 | 0.00 | 31 | 1012.0 |
| 20260509041553 | 56 | 265 | 4.0 | 7.0 | 0.00 | 0.00 | 0.00 | 37 | 1011.8 |
| 20260509040110 | 57 | 328 | 1.0 | 3.0 | 0.00 | 0.00 | 0.00 | 37 | 1011.4 |
| 20260509034612 | 58 | 327 | 1.0 | 4.0 | 0.00 | 0.00 | 0.00 | 35 | 1011.2 |
| 20260509033052 | 59 | 320 | 2.0 | 5.0 | 0.00 | 0.00 | 0.00 | 33 | 1011.0 |
| 20260509031551 | 60 | 342 | 1.0 | 2.0 | 0.00 | 0.00 | 0.00 | 32 | 1010.7 |
| 20260509030101 | 62 | 342 | 1.0 | 4.0 | 0.00 | 0.00 | 0.00 | 29 | 1010.4 |
| 20260509024549 | 64 | 9 | 4.0 | 6.0 | 0.00 | 0.00 | 0.00 | 28 | 1010.1 |
| 20260509023051 | 65 | 13 | 6.0 | 10.0 | 0.00 | 0.00 | 0.00 | 27 | 1009.9 |
| 20260509021550 | 67 | 11 | 10.0 | 14.0 | 0.00 | 0.00 | 0.00 | 26 | 1009.8 |
| 20260509020050 | 68 | 360 | 11.0 | 16.0 | 0.00 | 0.00 | 0.00 | 25 | 1009.7 |
| 20260509014547 | 69 | 355 | 10.0 | 14.0 | 0.00 | 0.00 | 0.00 | 25 | 1009.7 |
| 20260509013103 | 69 | 360 | 10.0 | 17.0 | 0.00 | 0.00 | 0.00 | 25 | 1009.6 |
| 20260509011647 | 70 | 343 | 9.0 | 17.0 | 0.00 | 0.00 | 0.00 | 25 | 1009.6 |
| 20260509010047 | 70 | 333 | 12.0 | 21.0 | 0.00 | 0.00 | 0.00 | 25 | 1009.6 |
| 20260509004545 | 71 | 355 | 11.0 | 19.0 | 0.00 | 0.00 | 0.00 | 24 | 1009.7 |
| 20260509003107 | 72 | 300 | 11.0 | 17.0 | 0.00 | 0.00 | 0.00 | 23 | 1009.6 |
| 20260509001545 | 72 | 317 | 12.0 | 21.0 | 0.00 | 0.00 | 0.00 | 23 | 1009.5 |
| 20260509000049 | 72 | 312 | 11.0 | 21.0 | 0.00 | 0.00 | 0.00 | 22 | 1009.5 |
| 20260508234542 | 73 | 319 | 14.0 | 21.0 | 0.00 | 0.00 | 0.00 | 22 | 1009.5 |
| 20260508233040 | 73 | 281 | 14.0 | 22.0 | 0.00 | 0.00 | 0.00 | 21 | 1009.4 |
| 20260508231546 | 73 | 316 | 15.0 | 23.0 | 0.00 | 0.00 | 0.00 | 21 | 1009.4 |
| 20260508230039 | 73 | 300 | 13.0 | 23.0 | 0.00 | 0.00 | 0.00 | 21 | 1009.6 |
| 20260508224542 | 74 | 328 | 15.0 | 25.0 | 0.00 | 0.00 | 0.00 | 20 | 1009.6 |
| 20260508223036 | 74 | 310 | 14.0 | 24.0 | 0.00 | 0.00 | 0.00 | 20 | 1009.6 |
| 20260508221534 | 74 | 336 | 15.0 | 25.0 | 0.00 | 0.00 | 0.00 | 21 | 1009.6 |
| 20260508220034 | 74 | 312 | 16.0 | 28.0 | 0.00 | 0.00 | 0.00 | 22 | 1009.6 |
| 20260508214532 | 74 | 337 | 15.0 | 22.0 | 0.00 | 0.00 | 0.00 | 21 | 1009.7 |
| 20260508213033 | 74 | 300 | 14.0 | 21.0 | 0.00 | 0.00 | 0.00 | 22 | 1009.7 |
| 20260508211530 | 74 | 263 | 15.0 | 26.0 | 0.00 | 0.00 | 0.00 | 21 | 1009.7 |
| 20260508210032 | 74 | 322 | 20.0 | 28.0 | 0.00 | 0.00 | 0.00 | 20 | 1009.6 |
| 20260508204527 | 74 | 277 | 12.0 | 22.0 | 0.00 | 0.00 | 0.00 | 22 | 1009.8 |
| 20260508203027 | 74 | 259 | 11.0 | 23.0 | 0.00 | 0.00 | 0.00 | 23 | 1009.8 |
| 20260508201526 | 73 | 287 | 15.0 | 24.0 | 0.00 | 0.00 | 0.00 | 21 | 1009.8 |
| 20260508200026 | 74 | 277 | 12.0 | 24.0 | 0.00 | 0.00 | 0.00 | 22 | 1009.9 |
| 20260508194521 | 74 | 257 | 17.0 | 27.0 | 0.00 | 0.00 | 0.00 | 22 | 1009.9 |
| 20260508193019 | 73 | 254 | 11.0 | 18.0 | 0.00 | 0.00 | 0.00 | 25 | 1010.0 |
| 20260508191517 | 71 | 299 | 12.0 | 20.0 | 0.00 | 0.00 | 0.00 | 27 | 1010.2 |
| 20260508190013 | 71 | 228 | 9.0 | 21.0 | 0.00 | 0.00 | 0.00 | 28 | 1010.5 |
| 20260508184511 | 71 | 273 | 8.0 | 15.0 | 0.00 | 0.00 | 0.00 | 29 | 1010.8 |
| 20260508183007 | 71 | 325 | 9.0 | 16.0 | 0.00 | 0.00 | 0.00 | 31 | 1011.1 |
| 20260508181503 | 71 | 245 | 8.0 | 18.0 | 0.00 | 0.00 | 0.00 | 31 | 1011.3 |
| 20260508174605 | 68 | 276 | 8.0 | 15.0 | 0.00 | 0.00 | 0.00 | 34 | 1011.5 |
| 20260508173053 | 68 | 284 | 8.0 | 17.0 | 0.00 | 0.00 | 0.00 | 34 | 1011.6 |
| 20260508171556 | 68 | 265 | 4.0 | 15.0 | 0.00 | 0.00 | 0.00 | 37 | 1011.8 |
| 20260508170047 | 67 | 276 | 6.0 | 13.0 | 0.00 | 0.00 | 0.00 | 41 | 1012.0 |
| 20260508164547 | 66 | 300 | 6.0 | 11.0 | 0.00 | 0.00 | 0.00 | 43 | 1012.1 |
| 20260508163105 | 64 | 248 | 6.0 | 13.0 | 0.00 | 0.00 | 0.00 | 48 | 1012.2 |
| 20260508161534 | 64 | 225 | 5.0 | 10.0 | 0.00 | 0.00 | 0.00 | 48 | 1012.4 |
| 20260508160034 | 61 | 271 | 5.0 | 9.0 | 0.00 | 0.00 | 0.00 | 52 | 1012.5 |
| 20260508154525 | 59 | 223 | 3.0 | 10.0 | 0.00 | 0.00 | 0.00 | 58 | 1012.6 |
| 20260508153027 | 57 | 218 | 5.0 | 9.0 | 0.00 | 0.00 | 0.00 | 60 | 1012.8 |
| 20260508151526 | 56 | 230 | 4.0 | 7.0 | 0.00 | 0.00 | 0.00 | 62 | 1012.9 |
| 20260508150015 | 55 | 207 | 2.0 | 6.0 | 0.00 | 0.00 | 0.00 | 64 | 1013.1 |
| 20260508144509 | 53 | 182 | 3.0 | 6.0 | 0.00 | 0.00 | 0.00 | 67 | 1013.2 |
| 20260508143005 | 52 | 220 | 3.0 | 7.0 | 0.00 | 0.00 | 0.00 | 68 | 1013.3 |
| 20260508141503 | 51 | 235 | 5.0 | 8.0 | 0.00 | 0.00 | 0.00 | 70 | 1013.5 |
| 20260508140059 | 49 | 212 | 5.0 | 7.0 | 0.00 | 0.00 | 0.00 | 72 | 1013.5 |
| 20260508134601 | 47 | 194 | 3.0 | 6.0 | 0.00 | 0.00 | 0.00 | 74 | 1013.4 |
| 20260508133059 | 45 | 341 | 1.0 | 2.0 | 0.00 | 0.00 | 0.00 | 77 | 1013.4 |
| 20260508131557 | 43 | 341 | 0.0 | 2.0 | 0.00 | 0.00 | 0.00 | 78 | 1013.4 |
| 20260508130106 | 41 | 341 | 0.0 | 0.0 | 0.00 | 0.00 | 0.00 | 80 | 1013.3 |
| 20260508124550 | 37 | 341 | 0.0 | 2.0 | 0.00 | 0.00 | 0.00 | 81 | 1013.3 |
| 20260508123047 | 37 | 341 | 1.0 | 3.0 | 0.00 | 0.00 | 0.00 | 80 | 1013.4 |
| 20260508121544 | 38 | 341 | 1.0 | 3.0 | 0.00 | 0.00 | 0.00 | 79 | 1013.1 |
| 20260508120043 | 38 | 341 | 1.0 | 3.0 | 0.00 | 0.00 | 0.00 | 77 | 1013.1 |
| 20260508114536 | 40 | 341 | 1.0 | 3.0 | 0.00 | 0.00 | 0.00 | 74 | 1013.3 |
| 20260508113037 | 40 | 341 | 1.0 | 2.0 | 0.00 | 0.00 | 0.00 | 73 | 1013.3 |
| 20260508111529 | 42 | 341 | 0.0 | 3.0 | 0.00 | 0.00 | 0.00 | 70 | 1013.3 |
| 20260508110031 | 45 | 341 | 1.0 | 5.0 | 0.00 | 0.00 | 0.00 | 68 | 1013.3 |
| 20260508104525 | 46 | 341 | 1.0 | 4.0 | 0.00 | 0.00 | 0.00 | 68 | 1013.4 |
| 20260508103025 | 46 | 341 | 2.0 | 4.0 | 0.00 | 0.00 | 0.00 | 68 | 1013.5 |
| 20260508101534 | 46 | 341 | 1.0 | 4.0 | 0.00 | 0.00 | 0.00 | 66 | 1013.6 |
| 20260508100026 | 46 | 329 | 3.0 | 4.0 | 0.00 | 0.00 | 0.00 | 63 | 1013.6 |
| 20260508094523 | 48 | 314 | 4.0 | 10.0 | 0.00 | 0.00 | 0.00 | 62 | 1013.6 |
| 20260508093039 | 47 | 316 | 3.0 | 10.0 | 0.00 | 0.00 | 0.00 | 64 | 1013.5 |
| 20260508091524 | 46 | 318 | 5.0 | 13.0 | 0.00 | 0.00 | 0.00 | 62 | 1013.5 |
| 20260508090028 | 46 | 323 | 3.0 | 8.0 | 0.00 | 0.00 | 0.00 | 60 | 1013.5 |
| 20260508084516 | 42 | 299 | 3.0 | 7.0 | 0.00 | 0.00 | 0.00 | 64 | 1013.6 |
| 20260508083020 | 44 | 309 | 1.0 | 3.0 | 0.00 | 0.00 | 0.00 | 58 | 1013.5 |
| 20260508081512 | 47 | 309 | 2.0 | 6.0 | 0.00 | 0.00 | 0.00 | 56 | 1013.4 |
| 20260508080011 | 49 | 345 | 5.0 | 9.0 | 0.00 | 0.00 | 0.00 | 54 | 1013.3 |